When you browse on this site, cookies collect data to enhance your experience and personalize the content and advertising you see.
Visit our Privacy Policy to learn more. By continuing to use the site, you agree to this use of cookies and data.
  • In Germany
  • List of Countries
  • For 7 days
  • Water Temperature
  • Weather Map
  • Weather Widgets
  • user-avatar
    Login

    Hourly Weather Novaya Knyaspa

    Today, 15 October, Tuesday

    Time Temperature Precipitation Wind Pressure Humidity
    00:00 +4°C° 0 mm 3 mps 726 mmHg 86%
    01:00 +4°C° 0 mm 3 mps 727 mmHg 84%
    02:00 +3°C° 0 mm 3 mps 727 mmHg 86%
    03:00 +4°C° 0 mm 2 mps 727 mmHg 87%
    04:00 +4°C° 0 mm 2 mps 728 mmHg 89%
    05:00 +4°C° 0.1 mm 2 mps 728 mmHg 90%
    06:00 +4°C° 0.1 mm 2 mps 728 mmHg 91%
    07:00 +4°C° 0.1 mm 2 mps 728 mmHg 93%
    08:00 +4°C° 0.1 mm 2 mps 728 mmHg 91%
    09:00 +3°C° 0.1 mm 3 mps 728 mmHg 89%
    10:00 +3°C° 0.1 mm 3 mps 728 mmHg 87%
    11:00 +3°C° 0.1 mm 3 mps 729 mmHg 87%
    12:00 +3°C° 0.1 mm 3 mps 729 mmHg 88%
    13:00 +3°C° 0.1 mm 3 mps 729 mmHg 88%
    14:00 +3°C° 0 mm 3 mps 729 mmHg 85%
    15:00 +3°C° 0 mm 3 mps 729 mmHg 82%
    16:00 +3°C° 0 mm 3 mps 729 mmHg 79%
    17:00 +2°C° 0 mm 3 mps 730 mmHg 81%
    18:00 +1°C° 0 mm 3 mps 730 mmHg 84%
    19:00 +1°C° 0 mm 3 mps 730 mmHg 86%
    20:00 +1°C° 0 mm 3 mps 730 mmHg 86%
    21:00 +2°C° 0 mm 2 mps 730 mmHg 86%
    22:00 +2°C° 0 mm 2 mps 731 mmHg 86%
    23:00 +2°C° 0 mm 2 mps 731 mmHg 87%

    Tomorrow, 16 October, Wednesday

    Time Temperature Precipitation Wind Pressure Humidity
    00:00 +2°C° 0 mm 2 mps 731 mmHg 88%
    01:00 +2°C° 0 mm 2 mps 731 mmHg 89%
    02:00 +1°C° 0 mm 2 mps 732 mmHg 88%
    03:00 +1°C° 0 mm 2 mps 733 mmHg 87%
    04:00 +1°C° 0 mm 2 mps 733 mmHg 87%
    05:00 +1°C° 0 mm 2 mps 733 mmHg 86%
    06:00 +1°C° 0 mm 2 mps 734 mmHg 85%
    07:00 +1°C° 0 mm 2 mps 734 mmHg 83%
    08:00 0°C° 0 mm 3 mps 734 mmHg 79%
    09:00 +1°C° 0 mm 3 mps 735 mmHg 75%
    10:00 +1°C° 0 mm 4 mps 735 mmHg 71%
    11:00 +1°C° 0 mm 4 mps 736 mmHg 70%
    12:00 +1°C° 0 mm 4 mps 736 mmHg 69%
    13:00 +3°C° 0 mm 4 mps 737 mmHg 68%
    14:00 +1°C° 0 mm 4 mps 737 mmHg 70%
    15:00 +2°C° 0 mm 3 mps 738 mmHg 72%
    16:00 +1°C° 0 mm 3 mps 738 mmHg 74%
    17:00 +1°C° 0 mm 3 mps 739 mmHg 77%
    18:00 0°C° 0 mm 3 mps 739 mmHg 79%
    19:00 0°C° 0 mm 3 mps 739 mmHg 82%
    20:00 0°C° 0 mm 3 mps 739 mmHg 82%
    21:00 -1°C° 0 mm 3 mps 740 mmHg 82%
    22:00 -1°C° 0 mm 3 mps 740 mmHg 83%
    23:00 -1°C° 0 mm 3 mps 740 mmHg 83%

    Day after tomorrow, 17 October, Thursday

    Time Temperature Precipitation Wind Pressure Humidity
    00:00 -1°C° 0 mm 2 mps 741 mmHg 84%
    01:00 -2°C° 0 mm 2 mps 741 mmHg 85%
    02:00 -2°C° 0 mm 2 mps 741 mmHg 85%
    03:00 -2°C° 0 mm 2 mps 742 mmHg 84%
    04:00 -2°C° 0 mm 2 mps 742 mmHg 83%
    05:00 -2°C° 0 mm 2 mps 742 mmHg 83%
    06:00 -2°C° 0 mm 2 mps 742 mmHg 82%
    07:00 -2°C° 0 mm 2 mps 743 mmHg 82%
    08:00 -1°C° 0 mm 2 mps 743 mmHg 77%
    09:00 -1°C° 0 mm 2 mps 742 mmHg 72%
    10:00 +1°C° 0 mm 2 mps 742 mmHg 67%
    11:00 +1°C° 0 mm 2 mps 742 mmHg 66%
    12:00 +3°C° 0 mm 1 mps 742 mmHg 64%
    13:00 +3°C° 0 mm 1 mps 742 mmHg 63%
    14:00 +2°C° 0 mm 1 mps 742 mmHg 67%
    15:00 +2°C° 0 mm 1 mps 741 mmHg 71%
    16:00 0°C° 0 mm 0 mps 741 mmHg 75%
    17:00 0°C° 0 mm 0 mps 741 mmHg 80%
    18:00 0°C° 0 mm 1 mps 740 mmHg 85%
    19:00 0°C° 0 mm 1 mps 740 mmHg 89%
    20:00 0°C° 0.1 mm 1 mps 740 mmHg 91%
    21:00 0°C° 0.1 mm 1 mps 739 mmHg 93%
    22:00 0°C° 0.1 mm 1 mps 739 mmHg 95%
    23:00 -2°C° 0.3 mm 2 mps 739 mmHg 95%

    18 October, Friday

    Time Temperature Precipitation Wind Pressure Humidity
    00:00 -2°C° 0.3 mm 2 mps 738 mmHg 95%
    01:00 -3°C° 0.3 mm 2 mps 738 mmHg 95%
    02:00 -4°C° 0.5 mm 3 mps 738 mmHg 95%
    03:00 -4°C° 0.5 mm 3 mps 738 mmHg 94%
    04:00 -5°C° 0.5 mm 4 mps 738 mmHg 94%
    05:00 -5°C° 0.3 mm 4 mps 738 mmHg 91%
    06:00 -5°C° 0.3 mm 4 mps 739 mmHg 88%
    07:00 -7°C° 0.3 mm 4 mps 739 mmHg 84%
    08:00 -5°C° 0 mm 4 mps 740 mmHg 82%
    09:00 -5°C° 0 mm 4 mps 741 mmHg 79%
    10:00 -5°C° 0 mm 4 mps 742 mmHg 77%
    11:00 -4°C° 0 mm 4 mps 742 mmHg 73%
    12:00 -4°C° 0 mm 4 mps 743 mmHg 70%
    13:00 -4°C° 0 mm 4 mps 743 mmHg 67%
    14:00 -4°C° 0 mm 3 mps 744 mmHg 69%
    15:00 -4°C° 0 mm 3 mps 744 mmHg 71%
    16:00 -4°C° 0 mm 2 mps 745 mmHg 73%
    17:00 -5°C° 0 mm 2 mps 745 mmHg 78%
    18:00 -6°C° 0 mm 2 mps 746 mmHg 82%
    19:00 -4°C° 0 mm 1 mps 746 mmHg 87%
    20:00 -6°C° 0 mm 1 mps 747 mmHg 87%
    21:00 -6°C° 0 mm 1 mps 747 mmHg 88%
    22:00 -6°C° 0 mm 1 mps 748 mmHg 88%
    23:00 -6°C° 0 mm 1 mps 748 mmHg 88%

    19 October, Saturday

    Time Temperature Precipitation Wind Pressure Humidity
    00:00 -6°C° 0 mm 1 mps 748 mmHg 87%
    01:00 -6°C° 0 mm 1 mps 748 mmHg 87%
    02:00 -7°C° 0 mm 1 mps 748 mmHg 87%
    03:00 -7°C° 0 mm 1 mps 749 mmHg 86%
    04:00 -7°C° 0 mm 1 mps 749 mmHg 86%
    05:00 -7°C° 0 mm 1 mps 749 mmHg 86%
    06:00 -7°C° 0 mm 1 mps 749 mmHg 86%
    07:00 -7°C° 0 mm 1 mps 749 mmHg 86%
    08:00 -4°C° 0 mm 1 mps 749 mmHg 80%
    09:00 -5°C° 0 mm 2 mps 750 mmHg 73%
    10:00 -3°C° 0 mm 2 mps 750 mmHg 67%
    11:00 -2°C° 0 mm 2 mps 750 mmHg 64%
    12:00 -1°C° 0 mm 2 mps 750 mmHg 61%
    13:00 -1°C° 0 mm 3 mps 749 mmHg 59%
    14:00 -1°C° 0 mm 2 mps 749 mmHg 63%
    15:00 -2°C° 0 mm 2 mps 749 mmHg 67%
    16:00 -3°C° 0 mm 2 mps 749 mmHg 72%
    17:00 -3°C° 0 mm 2 mps 749 mmHg 76%
    18:00 -4°C° 0 mm 2 mps 748 mmHg 81%
    19:00 -6°C° 0 mm 3 mps 748 mmHg 85%
    20:00 -6°C° 0 mm 3 mps 748 mmHg 85%
    21:00 -6°C° 0 mm 3 mps 748 mmHg 84%
    22:00 -6°C° 0 mm 3 mps 748 mmHg 84%
    23:00 -5°C° 0 mm 3 mps 748 mmHg 83%

    20 October, Sunday

    Time Temperature Precipitation Wind Pressure Humidity
    00:00 -5°C° 0 mm 3 mps 748 mmHg 82%
    01:00 -5°C° 0 mm 3 mps 747 mmHg 81%
    02:00 -5°C° 0 mm 3 mps 747 mmHg 80%
    03:00 -5°C° 0 mm 3 mps 747 mmHg 80%
    04:00 -5°C° 0 mm 3 mps 747 mmHg 79%
    05:00 -5°C° 0 mm 3 mps 747 mmHg 80%
    06:00 -5°C° 0 mm 3 mps 747 mmHg 81%
    07:00 -5°C° 0 mm 3 mps 747 mmHg 81%
    08:00 -4°C° 0 mm 3 mps 747 mmHg 79%
    09:00 -2°C° 0 mm 3 mps 747 mmHg 77%
    10:00 -2°C° 0 mm 4 mps 747 mmHg 74%
    11:00 -2°C° 0 mm 4 mps 747 mmHg 73%
    12:00 -1°C° 0 mm 4 mps 747 mmHg 72%
    13:00 -1°C° 0 mm 4 mps 746 mmHg 71%
    14:00 -1°C° 0 mm 4 mps 746 mmHg 74%
    15:00 -1°C° 0 mm 3 mps 746 mmHg 77%
    16:00 -1°C° 0 mm 3 mps 746 mmHg 80%
    17:00 -1°C° 0 mm 3 mps 746 mmHg 82%
    18:00 -2°C° 0 mm 3 mps 746 mmHg 84%
    19:00 -2°C° 0 mm 3 mps 746 mmHg 86%
    20:00 -2°C° 0 mm 3 mps 746 mmHg 87%
    21:00 -2°C° 0 mm 2 mps 745 mmHg 89%
    22:00 -2°C° 0 mm 2 mps 745 mmHg 90%
    23:00 -1°C° 0 mm 2 mps 745 mmHg 90%
    Show more